Hauptseite
METAR-TAF:

METAR-TAF

Flughäfen :

Grise Fiord, Nunavut, Kanada

Breite: 76-25N, Länge: 082-54W, Höhe: 45 m

Beobachtung

Neuester Wetterbericht von vor 5 Stunden und 9 Minuten, um 21:00 UTC
Windstille
Temperatur -29°C
Luftfeuchtigkeit 68%
Luftdruck 1012 hPa
Sichtweite: 24.1 km
Leicht bewölkt in der Höhe von 7000 ft

METAR: CWGZ 152100Z 00000KT 15SM FEW070 M29/M33 A2989 RMK AC1 AC TR -23.5/-33.6/0.0/LAST OBS/NEXT 181300Z SLP130

Zeit: 21:09 (02:09 UTC)


TAF: fehlend

Wetterbeobachtungen und Prognosen von mehr als 4000 Flughäfen (METAR und TAF Bericht).

Die verfügbaren Stationen werden durch gelbe und rote Markierungen auf der Karte dargestellt.

Führen Sie die Maus auf sie, um den Namen der Station zu sehen.

Darauf klicken, um die Beobachtung von Wetterbeobachtungen und Prognosen zu sehen.

Um die Karte zu ändern : klicken Sie auf den grünen Tasten mit einem schwarzen Kreuz Zum Vergrößern, auf den grünen Button mit einem Gedankenstrich zu verkleinern, oder auf die grünen Pfeile für benachbarte Karten.


METAR-TAF: